Regional Weather Roundup
Issued by NWS

Home | Current Version | Previous Version | Text Only | Print | Product List | Glossary Off
Versions: 1 2 3 4 5 6 7 8 9 10 11 12 13 14 15 16 17 18 19 20 21 22 23 24 25 26 27 28 29 30 31 32 33 34 35 36 37 38 39 40 41 42 43 44 45 46 47 48 49 50

000
ASUS43 KFSD 061702
RWRSD

WEATHER ROUNDUP FOR SOUTH DAKOTA
NATIONAL WEATHER SERVICE SIOUX FALLS SD
1100 AM CST SAT FEB 06 2016

NOTE: "FAIR" INDICATES FEW OR NO CLOUDS BELOW 12,000 FEET WITH NO
SIGNIFICANT WEATHER AND/OR OBSTRUCTIONS TO VISIBILITY.


SDZ001>005-009-010-012>017-061800-
NORTHWEST AND NORTH CENTRAL SOUTH DAKOTA

CITY           SKY/WX    TMP DP  RH WIND       PRES   REMARKS
BUFFALO          N/A     41  22  46 W20       29.81F
FAITH            N/A     40  24  53 SW14      29.89F
MOBRIDGE       CLOUDY    43  28  55 S6        29.85F
$$

SDZ012>016-024>037-041>051-057-063-072>074-061800-
SOUTHWEST AND SOUTH CENTRAL SOUTH DAKOTA

CITY           SKY/WX    TMP DP  RH WIND       PRES   REMARKS
RAPID CTY ARPT CLOUDY    40  28  62 SE3       29.97F
PIERRE         SUNNY     39  23  52 SW14      29.93F
CUSTER         CLOUDY    33  16  49 W18G31    30.02S WCI  22
ELLSWORTH AFB  CLOUDY    41  27  57 S10       29.95F
PHILIP         CLOUDY    40  25  55 W12       29.97F
PINE RIDGE     CLOUDY    34  21  59 W12       30.08F WCI  25
WINNER         FAIR      39  24  55 SW13      30.00F
$$

SDZ004>011-016>023-039-040-061800-
NORTHEAST SOUTH DAKOTA

CITY           SKY/WX    TMP DP  RH WIND       PRES   REMARKS
ABERDEEN       MOSUNNY   37  29  72 SW14      29.89F
WATERTOWN      CLOUDY    32  24  72 S13       29.93F WCI  22
BROOKINGS      CLOUDY    32  26  78 S9        29.99F WCI  24
SISSETON         N/A     37  25  61 W23G31    29.84F
$$

SDZ017-020-022-023-036>040-048>070-061800-
SOUTHEAST SOUTH DAKOTA

CITY           SKY/WX    TMP DP  RH WIND       PRES   REMARKS
SIOUX FALLS    PTSUNNY   27  22  81 S13       30.05F WCI  16
HURON          MOSUNNY   31  25  78 S12       29.98F WCI  22
MITCHELL       MOSUNNY   33  25  72 SW8       30.03F WCI  26
YANKTON        SUNNY     32  23  69 SW8       30.09R WCI  25
$$

ABBREVIATIONS USED IN REMARKS
   TC - TEMPERATURE IN CELSIUS
  WCI - WIND CHILL INDEX
   HX - HEAT INDEX
  VSB - VISIBILITY




USA.gov is the U.S. government's official web portal to all federal, state and local government web resources and services.